Flag for Canada Weather past 2 weeks in Gander, Newfoundland and Labrador, Canada

Now
28 °F

Snow flurries. Overcast.


Feels Like: 20 °F
Forecast: 28 / 36 °F
Wind: 9 mph from Southeast

Location: Gander Int. Airport

Current Time: Dec 18, 2014 at 4:24:44 AM

Latest Report: Dec 18, 2014 at 3:30 AM


Visibility: 15 mi

Pressure: 30.10 "Hg

Humidity: 86%

Dew point: 25 °F

Location of GanderLocation

Historic Weather in Gander — Graph

°F

Gander temperature yesterday

Maximum temperature yesterday: 28 °F (at 1:30 PM)
Minimum temperature yesterday: 25 °F (at 12:30 AM)
Average temperature yesterday: 26 °F

Past Weeks' High & Low Weather Summary

 TemperatureHumidityPressure
High52 °F (Dec 4, 8:30 AM)100% (Dec 4, 5:30 AM)30.86 "Hg (Dec 4, 5:30 AM)
Low5 °F (Dec 8, 5:30 AM)46% (Dec 5, 1:30 PM)29.46 "Hg (Dec 15, 3:30 AM)
Average31 °F85%30.20 "Hg
* Reported Dec 3 2:30 AM — Dec 18 2:30 AM, Gander, Weather by CustomWeather, © 2014

Note: Actual official high and low records may vary slightly from our data, if they occured in-between our weather recording intervals... More about our weather records

Advertising

Gander weather history for previous 24 hours

 ConditionsComfort  
Time TempWeatherWind HumidityBarometerVisibility
2:30 AM
Dec 18
27 °FSnow flurries. Overcast.8 mph93%30.11 "Hg15 mi
1:30 AM27 °FSnow flurries. Low clouds.9 mph93%30.12 "Hg8 mi
1:23 AM27 °FSnow flurries. Low clouds.8 mph93%30.12 "Hg8 mi
12:30 AM27 °FLight freezing rain. Overcast.9 mph93%30.14 "Hg12 mi
11:30 PM
Dec 17
27 °FOvercast.10 mph86%30.15 "Hg15 mi
10:30 PM27 °FOvercast.8 mph86%30.16 "Hg15 mi
9:30 PM27 °FOvercast.8 mph86%30.16 "Hg15 mi
8:30 PM27 °FOvercast.7 mph86%30.16 "Hg15 mi
7:30 PM27 °FOvercast.12 mph86%30.16 "Hg15 mi
6:30 PM27 °FOvercast.8 mph80%30.16 "Hg15 mi
5:30 PM27 °FMostly cloudy.7 mph80%30.15 "Hg15 mi
4:30 PM27 °FPartly cloudy.7 mph80%30.16 "Hg15 mi
3:30 PM27 °FBroken clouds.3 mph80%30.15 "Hg15 mi
2:30 PM28 °FPartly sunny.7 mph74%30.14 "Hg15 mi
1:30 PM28 °FPartly sunny.8 mph80%30.14 "Hg15 mi
12:30 PM27 °FPartly sunny.6 mph80%30.14 "Hg15 mi
11:30 AM27 °FPartly sunny.8 mph80%30.15 "Hg15 mi
10:30 AM27 °FPartly sunny.7 mph80%30.16 "Hg15 mi
9:30 AM25 °FPartly sunny.8 mph86%30.16 "Hg15 mi
8:30 AM25 °FOvercast.10 mph86%30.16 "Hg15 mi
7:30 AM25 °FOvercast.7 mph86%30.14 "Hg15 mi
6:30 AM25 °FOvercast.9 mph86%30.14 "Hg15 mi
5:30 AM25 °FPassing clouds.8 mph86%30.14 "Hg15 mi
4:30 AM25 °FPassing clouds.9 mph86%30.14 "Hg15 mi
Weather by CustomWeather, © 2014

See weather overviewHow to use our weather pages